Location: Unspecified
(0.0000°N, 0.0000°E)
Time: 20:42:50
(UTC+00:00)

ISS - Visible Passes

Search period start: 26 May 2017 00:00
Search period end: 05 June 2017 00:00
Orbit: 402 x 408 km, 51.6° (Epoch: 27 May)

Date Brightness Start Highest point End Pass type
(mag) Time Alt. Az. Time Alt. Az. Time Alt. Az.
26 May -0.6 04:48:42 10° N 04:50:57 17° NE 04:53:11 10° E visible
28 May -3.7 04:40:03 10° NNW 04:43:17 74° NE 04:46:31 10° SE visible
29 May -0.6 03:53:57 10° ESE 03:53:57 10° ESE 03:54:01 10° ESE visible
